Location: Esp�n
(42.4593°N, 0.2047°W)
Time: 21:16:23
(UTC+00:00)

Cosmos 1818 - Pass Details

Date: 07 June 2020
Orbit: 777 x 796 km, 65.0° (Epoch: 13 July)

Event Time Altitude Azimuth Distance (km) Brightness Sun altitude
Exits shadow 03:37:21 - 199° (SSW) 2,761 5.9 -7.7°
Reaches altitude 10° 03:38:28 10° 197° (SSW) 2,340 5.5 -7.6°
Maximum altitude 03:43:45 61° 119° (ESE) 896 4.0 -6.8°
Drops below altitude 10° 03:49:06 10° 40° (NE) 2,366 7.7 -6.1°
Sets 03:51:34 0° 37° (NE) 3,302 8.7 -5.7°
